Погода в Юсово

Россия / Липецкая область     53°13′23″N   39°58′52″E
темп.,
°C
ветер,
м/с
пор.,
м/с
влажн.,
%
обл.,
%
осадки,
мм/ч
давл.,
гПа
погр.,
м
18 апреля, вс
вс1800:00+7ююз2290100 0.6 101937
03:00+6ююв12905 0.6 101916
06:00+6юв34945 0.0 101985
09:00+9юв34745 0.0 1018567
12:00+12ююв345593 0.3 10181622
15:00+13юв3446100 0.4 10181844
18:00+11юв2361100 0.1 1018228
21:00+9вюв2373100 0.3 101956
19 апреля, пн
пн1900:00+8вюв2273100 0.1 101915
03:00+8в2279100 0.1 101936
06:00+7в51094100 1.2 1018364
09:00+8всв5785100 1.9 1019637
12:00+8всв5782100 0.4 1019658
15:00+7св61089100 0.8 1019544
18:00+7всв5989100 0.1 1019641
21:00+6всв61190100 0.1 1020628
20 апреля, вт
вт2000:00+6всв51091100 0.0 1019501
03:00+6в5994100 0.1 1019453
06:00+6в51094100 0.1 1018481
09:00+6в71089100 0.1 1018599
12:00+6в71187100 0.3 1018755
15:00+7в81481100 0.3 1015799
18:00+5в91791100 4.8 1012883
21:00+5вюв112392100 15.5 10071203
21 апреля, ср
ср2100:00+7вюв112192100 8.8 10041081
03:00+9юв101792100 9.0 1002831
06:00+9ююв81485100 0.6 1001877
09:00+8ююв81491100 1.1 1002948
12:00+5з71093100 1.3 1006498
15:00+6зюз71180100 1.3 10101025
18:00+6зюз6975100 0.0 1013970
21:00+6ю4980100 0.0 1016281
22 апреля, чт
чт2200:00+6ю4885100 0.0 1017224
03:00+6ю3787100 0.0 1018175
06:00+5ююз35875 0.0 1019118
09:00+9ююз46615 0.0 1020627
12:00+13юз454723 0.0 10201606
15:00+14ююз344489 0.0 10201990
18:00+13ю355475 0.0 1020201
21:00+9ю36677 0.0 1021101